Farmville, Virginia, United States (23901)
Lat: 37.30N, Lon: 78.39W
Wx Zone: VAZ060
Local Info
Past Weather Observations for Today

NOTE: This archive is for the closest National Weather Service station to Farmville. Information may differ from the station used for current weather conditions.

Time Weather Temperature Dewpoint Humidity Pressure Winds Precip Visibility
22:55
Partly Cloudy
39°F / 4°C 30°F / -1°C 70% 30.06 in
(1018 mb)
Calm - 10SM
22:35
Partly Cloudy
39°F / 4°C 30°F / -1°C 70% 30.04 in
(1017 mb)
NNW 3.5 mph
(NNW 6 kph)
- 10SM
22:15
Partly Cloudy
39°F / 4°C 30°F / -1°C 70% 30.01 in
(1016 mb)
NNW 4.6 mph
(NNW 7 kph)
- 10SM
21:55
Mostly Cloudy
41°F / 5°C 32°F / 0°C 70% 29.98 in
(1015 mb)
NNW 5.8 mph
(NNW 9 kph)
- 10SM
21:35
Partly Cloudy
43°F / 6°C 39°F / 4°C 87% 29.98 in
(1015 mb)
N 3.5 mph
(N 6 kph)
- 10SM
21:15
Partly Cloudy
43°F / 6°C 41°F / 5°C 93% 29.98 in
(1015 mb)
Calm - 10SM
20:55
Partly Cloudy
43°F / 6°C 41°F / 5°C 93% 29.95 in
(1014 mb)
Calm - 10SM
20:35
Mostly Cloudy
43°F / 6°C 41°F / 5°C 93% 29.92 in
(1013 mb)
N 5.8 mph
(N 9 kph)
- 10SM
20:15
Overcast
43°F / 6°C 41°F / 5°C 93% 29.92 in
(1013 mb)
NNE 5.8 mph
(NNE 9 kph)
- 10SM
19:55
Overcast
Light Rain
43°F / 6°C 41°F / 5°C 93% 29.89 in
(1012 mb)
N 4.6 mph
(N 7 kph)
- 10SM
19:35
Overcast
Drizzle
43°F / 6°C 41°F / 5°C 93% 29.86 in
(1011 mb)
N 5.8 mph
(N 9 kph)
0.02 in
(0.51 mm)
10SM
19:15
Overcast
Drizzle
45°F / 7°C 43°F / 6°C 93% 29.83 in
(1010 mb)
N 10.4 mph
(N 17 kph)
0.02 in
(0.51 mm)
10SM
18:55
Overcast
Light Rain
45°F / 7°C 43°F / 6°C 93% 29.83 in
(1010 mb)
N 5.8 mph
(N 9 kph)
0.01 in
(0.25 mm)
10SM
18:35
Overcast
Rain
45°F / 7°C 45°F / 7°C 100% 29.8 in
(1009 mb)
N 10.4 mph
(N 17 kph)
0.05 in
(1.27 mm)
10SM
18:15
Overcast
Light Rain
46°F / 8°C 45°F / 7°C 93% 29.77 in
(1008 mb)
N 5.8 mph
(N 9 kph)
0.04 in
(1.02 mm)
10SM
17:55
Overcast
Light Rain
46°F / 8°C 46°F / 8°C 100% 29.74 in
(1007 mb)
N 9.2 mph
(N 15 kph)
0.01 in
(0.25 mm)
10SM
17:35
Overcast
Heavy Rain
48°F / 9°C 48°F / 9°C 100% 29.77 in
(1008 mb)
N 8.1 mph
(N 13 kph)
0.09 in
(2.29 mm)
10SM
17:15
Overcast
Light Rain
50°F / 10°C 50°F / 10°C 100% 29.74 in
(1007 mb)
W 3.5 mph
(W 6 kph)
0.04 in
(1.02 mm)
10SM
16:55
Overcast
Light Rain
52°F / 11°C 50°F / 10°C 94% 29.71 in
(1006 mb)
N 4.6 mph
(N 7 kph)
0.01 in
(0.25 mm)
10SM
16:35
Overcast
Heavy Rain
52°F / 11°C 52°F / 11°C 100% 29.71 in
(1006 mb)
NNW 6.9 mph
(NNW 11 kph)
0.11 in
(2.79 mm)
5SM
16:15
Overcast
Rain
52°F / 11°C 52°F / 11°C 100% 29.68 in
(1005 mb)
NW 5.8 mph
(NW 9 kph)
0.07 in
(1.78 mm)
7SM
15:55
Overcast
Heavy Rain
52°F / 11°C 52°F / 11°C 100% 29.68 in
(1005 mb)
NW 5.8 mph
(NW 9 kph)
0.06 in
(1.52 mm)
5SM
15:35
Overcast
Rain
54°F / 12°C 54°F / 12°C 100% 29.65 in
(1004 mb)
NW 4.6 mph
(NW 7 kph)
0.01 in
(0.25 mm)
10SM
15:15
Overcast
Light Rain
55°F / 13°C 54°F / 12°C 94% 29.62 in
(1003 mb)
W 5.8 mph
(W 9 kph)
0.01 in
(0.25 mm)
10SM
14:55
Overcast
Drizzle
57°F / 14°C 55°F / 13°C 94% 29.62 in
(1003 mb)
WNW 8.1 mph
(WNW 13 kph)
- 7SM
14:35
Overcast
Light Rain
61°F / 16°C 59°F / 15°C 94% 29.59 in
(1002 mb)
NW 6.9 mph
(NW 11 kph)
0.09 in
(2.29 mm)
7SM
14:15
Overcast
Light Rain
61°F / 16°C 61°F / 16°C 100% 29.59 in
(1002 mb)
SSW 3.5 mph
(SSW 6 kph)
0.08 in
(2.03 mm)
10SM
13:55
Overcast
66°F / 19°C 64°F / 18°C 94% 29.56 in
(1001 mb)
SW 6.9 mph
(SW 11 kph)
- 10SM
13:35
Overcast
66°F / 19°C 64°F / 18°C 94% 29.56 in
(1001 mb)
SW 9.2 mph
(SW 15 kph)
0.01 in
(0.25 mm)
10SM
13:15
Overcast
Rain
66°F / 19°C 64°F / 18°C 94% 29.59 in
(1002 mb)
SW 10.4 mph
(SW 17 kph)
0.01 in
(0.25 mm)
4SM
12:35
Overcast
68°F / 20°C 61°F / 16°C 78% 29.59 in
(1002 mb)
SW 23 mph
(SW 37 kph)
- 7SM
12:15
Mostly Cloudy
70°F / 21°C 61°F / 16°C 73% 29.59 in
(1002 mb)
SW 19.6 mph
(SW 32 kph)
- 7SM
11:55
Overcast
70°F / 21°C 61°F / 16°C 73% 29.59 in
(1002 mb)
SSE 20.7 mph
(SSE 33 kph)
- 10SM
11:35
Overcast
70°F / 21°C 61°F / 16°C 73% 29.59 in
(1002 mb)
SSE 17.3 mph
(SSE 28 kph)
- 10SM
11:15
Overcast
72°F / 22°C 61°F / 16°C 69% 29.59 in
(1002 mb)
SSE 17.3 mph
(SSE 28 kph)
- 10SM
10:55
Overcast
70°F / 21°C 63°F / 17°C 78% 29.59 in
(1002 mb)
SSE 18.4 mph
(SSE 30 kph)
- 10SM
10:35
Overcast
70°F / 21°C 66°F / 19°C 88% 29.59 in
(1002 mb)
SSE 16.1 mph
(SSE 26 kph)
- 10SM
10:15
Mostly Cloudy
70°F / 21°C 66°F / 19°C 88% 29.59 in
(1002 mb)
S 20.7 mph
(S 33 kph)
- 10SM
09:55
Overcast
70°F / 21°C 66°F / 19°C 88% 29.59 in
(1002 mb)
S 18.4 mph
(S 30 kph)
- 10SM
09:35
Overcast
68°F / 20°C 66°F / 19°C 94% 29.62 in
(1003 mb)
S 12.7 mph
(S 20 kph)
- 10SM
09:15
Mostly Cloudy
68°F / 20°C 66°F / 19°C 94% 29.62 in
(1003 mb)
SSE 13.8 mph
(SSE 22 kph)
- 10SM
08:55
Overcast
68°F / 20°C 66°F / 19°C 94% 29.62 in
(1003 mb)
S 15 mph
(S 24 kph)
- 10SM
08:35
Partly Cloudy
66°F / 19°C 66°F / 19°C 100% 29.59 in
(1002 mb)
S 9.2 mph
(S 15 kph)
- 10SM
08:15
Mostly Cloudy
66°F / 19°C 66°F / 19°C 100% 29.59 in
(1002 mb)
S 8.1 mph
(S 13 kph)
- 10SM
07:55
Mostly Cloudy
66°F / 19°C 66°F / 19°C 100% 29.65 in
(1004 mb)
SSE 9.2 mph
(SSE 15 kph)
- 10SM
07:35
Mostly Cloudy
Drizzle
66°F / 19°C 64°F / 18°C 94% 29.62 in
(1003 mb)
SSE 8.1 mph
(SSE 13 kph)
0.02 in
(0.51 mm)
10SM
07:15
Overcast
Light Rain
66°F / 19°C 66°F / 19°C 100% 29.65 in
(1004 mb)
SSE 9.2 mph
(SSE 15 kph)
0.02 in
(0.51 mm)
10SM
06:55
Overcast
Light Rain
66°F / 19°C 64°F / 18°C 94% 29.65 in
(1004 mb)
SW 10.4 mph
(SW 17 kph)
0.01 in
(0.25 mm)
10SM
06:35
Overcast
Light Rain
66°F / 19°C 66°F / 19°C 100% 29.62 in
(1003 mb)
S 13.8 mph
(S 22 kph)
0.19 in
(4.83 mm)
7SM
06:15
Overcast
Rain
66°F / 19°C 64°F / 18°C 94% 29.65 in
(1004 mb)
S 6.9 mph
(S 11 kph)
0.10 in
(2.54 mm)
10SM
05:55
Overcast
Rain
66°F / 19°C 64°F / 18°C 94% 29.65 in
(1004 mb)
SW 5.8 mph
(SW 9 kph)
0.03 in
(0.76 mm)
10SM
05:35
Overcast
Heavy Rain
66°F / 19°C 66°F / 19°C 100% 29.65 in
(1004 mb)
SW 8.1 mph
(SW 13 kph)
0.39 in
(9.91 mm)
3SM
05:15
Overcast
Light Rain
66°F / 19°C 64°F / 18°C 94% 29.65 in
(1004 mb)
S 9.2 mph
(S 15 kph)
- 10SM
04:55
Overcast
Light Rain
68°F / 20°C 63°F / 17°C 83% 29.65 in
(1004 mb)
S 16.1 mph
(S 26 kph)
- 10SM
04:35
Overcast
68°F / 20°C 63°F / 17°C 83% 29.65 in
(1004 mb)
S 13.8 mph
(S 22 kph)
- 10SM
04:15
Overcast
68°F / 20°C 63°F / 17°C 83% 29.65 in
(1004 mb)
S 11.5 mph
(S 19 kph)
- 10SM
03:55
Overcast
66°F / 19°C 63°F / 17°C 88% 29.68 in
(1005 mb)
S 13.8 mph
(S 22 kph)
- 10SM
03:35
Overcast
Drizzle
66°F / 19°C 63°F / 17°C 88% 29.68 in
(1005 mb)
S 13.8 mph
(S 22 kph)
- 10SM
03:15
Overcast
Drizzle
68°F / 20°C 61°F / 16°C 78% 29.68 in
(1005 mb)
S 16.1 mph
(S 26 kph)
- 10SM
02:55
Overcast
66°F / 19°C 61°F / 16°C 83% 29.71 in
(1006 mb)
S 15 mph
(S 24 kph)
- 10SM
02:35
Overcast
66°F / 19°C 61°F / 16°C 83% 29.71 in
(1006 mb)
S 15 mph
(S 24 kph)
- 10SM
02:15
Overcast
66°F / 19°C 61°F / 16°C 83% 29.71 in
(1006 mb)
S 11.5 mph
(S 19 kph)
- 10SM
01:55
Overcast
66°F / 19°C 61°F / 16°C 83% 29.74 in
(1007 mb)
S 15 mph
(S 24 kph)
- 10SM
01:35
Overcast
66°F / 19°C 61°F / 16°C 83% 29.74 in
(1007 mb)
S 13.8 mph
(S 22 kph)
- 10SM
01:15
Overcast
66°F / 19°C 61°F / 16°C 83% 29.74 in
(1007 mb)
S 11.5 mph
(S 19 kph)
- 10SM
00:55
Overcast
66°F / 19°C 61°F / 16°C 83% 29.77 in
(1008 mb)
S 11.5 mph
(S 19 kph)
- 10SM
00:35
Overcast
66°F / 19°C 61°F / 16°C 83% 29.77 in
(1008 mb)
S 10.4 mph
(S 17 kph)
- 10SM
00:15
Overcast
Light Rain
66°F / 19°C 61°F / 16°C 83% 29.77 in
(1008 mb)
S 11.5 mph
(S 19 kph)
- 10SM
Time Weather Temperature Dewpoint Humidity Pressure Winds Precip Visibility


Weather for websites

WeatherForYou.com, LLC is not responsible for any damages or problems caused by this service. Current weather conditions are obtained from the closest station including government and personal stations which may have varying degrees of accuracy. Weather forecasts are derived from the NOAA NDFD. Like all things, this site belongs to Jesus Christ... He just trusts me to maintain it. If you have any questions or comments email webmaster@weatherforyou.com

Copyright © 2014, WeatherForYou.com LLC. All rights reserved.